Showing default

OPS 9327 (IDSCS 14), 2654

Orbit data source: Space-Track

OPS 9327 (IDSCS 14), 2654 is a payload satellite owned by USAF SSD (US) in GEO that was launched on Wed, 18 Jan 1967 UTC via a TITAN IIIC launch vehicle from the Air Force Eastern Test Range (AFETR). Payload-class satellites include a variety of spacecraft equipped with specific instruments for various scientific and technological missions. These include communications satellites like Starlink; space stations such as the ISS; scientific satellites like the Hubble; Earth observation satellites from companies like Planet Labs, Umbra, and HawkEye 360; GPS; miniature CubeSats for education and research; and military/defense satellites.

Loading next visibility...
Identifier
2654, 1967-003G
Orbit
GEO
Last TLE update
21 hours ago
Origin
Manufacturer
Philco-Ford WDL
Mission
Non-operational Defense Communications
Bus & Motor
IDCSP, Unknown motor
Mass
45 kg wet, 45 kg dry
Launch date (UTC)
1967-01-18 (58 years ago)
Launch vehicle
TITAN IIIC
Launch site
Air Force Eastern Test Range (AFETR)
Object type
Payload
Rocket body
Debris
Shape & HBR
Ico Poly, 0.5 m
Radar Cross Section
0.926 m², Medium (>0.1 m² and < 1m²)

Expand to show TLE details & history

TLE from 21 hours ago
0 OPS 9327 (IDSCS 14)
1  2654U 67003G   25198.44601278 -.00000051  00000-0  00000+0 0  9996
2  2654   7.5075  50.1570 0058389  41.7245 161.8906  1.07510637135928
Epoch: 2025-07-17T10:42Z
TLE epoch observation values (Epoch: 2025-07-17T10:42:15.504Z)
Latitude
-3.03043°
Longitude
157.72659°
Altitude
34,095.853 km
Speed
3.13 km/s
True Right ascension
16h 55m 12s
True Declination
-3° 01' 38"
Sunlit
Object was in daylight at epoch
Visualization orbit readout
Latitude
-0.92386°
Longitude
141.10307°
Altitude
34,064.634 km
Speed
3.132 km/s
Apparent Right ascension
15h 21m 15s
Apparent Declination
-6° 50' 36"
Sunlit
Object is in daylight
Visualization observer readout
Local Sidereal Time
20:43:44
Azimuth
258.729° W
Elevation
2.732°
Doppler factor
1
Orbital elements
Apogee altitude
34,108.131 km
Perigee altitude
33,638.085 km
Semi-major axis
40,251.245 km
Eccentricity
0.00584
Inclination
7.5075°
RAAN
50.157°
Arg. of periapsis
41.7245°
True anomaly
162.09714°
Mean anomaly
161.8906°
Eccentric anomaly
161.99401°
Mean motion
0.26877 °/min
Orbital period
1,339.46 mins
BSTAR
0
Loading maneuver chart data...
Loading SW <> Apogee altitude chart data...
Loading historical data...
Loading historical data...
Loading historical data...
Loading historical data...
Loading historical data...
Loading historical data...
Loading historical data...
|